When you browse on this site, cookies collect data to enhance your experience and personalize the content and advertising you see.
Visit our Privacy Policy to learn more. By continuing to use the site, you agree to this use of cookies and data.
  • In Latvia
  • List of Countries
  • For 7 days
  • Water Temperature
  • Satellite Maps
  • Weather Map
  • Weather Widgets
  • user-avatar
    Login

    Hourly Weather Ulyap

    Today, 24 March, Sunday

    Time Temperature Precipitation Wind Pressure Humidity
    00:00 +1°C° 0 mm 3 mps 756 mmHg 73%
    01:00 0°C° 0 mm 3 mps 756 mmHg 75%
    02:00 0°C° 0 mm 3 mps 756 mmHg 77%
    03:00 0°C° 0 mm 3 mps 756 mmHg 80%
    04:00 0°C° 0 mm 3 mps 756 mmHg 79%
    05:00 -1°C° 0 mm 4 mps 756 mmHg 78%
    06:00 -1°C° 0 mm 4 mps 757 mmHg 77%
    07:00 0°C° 0.1 mm 4 mps 757 mmHg 77%
    08:00 +1°C° 0.1 mm 4 mps 757 mmHg 78%
    09:00 +2°C° 0.1 mm 5 mps 757 mmHg 78%
    10:00 +3°C° 0.1 mm 4 mps 757 mmHg 74%
    11:00 +4°C° 0.1 mm 4 mps 757 mmHg 71%
    12:00 +5°C° 0.1 mm 4 mps 757 mmHg 67%
    13:00 +5°C° 0.1 mm 5 mps 757 mmHg 64%
    14:00 +6°C° 0.1 mm 5 mps 757 mmHg 62%
    15:00 +6°C° 0.1 mm 5 mps 757 mmHg 60%
    16:00 +5°C° 0 mm 5 mps 757 mmHg 63%
    17:00 +5°C° 0 mm 4 mps 757 mmHg 66%
    18:00 +4°C° 0 mm 3 mps 757 mmHg 68%
    19:00 +3°C° 0 mm 3 mps 758 mmHg 72%
    20:00 +2°C° 0 mm 3 mps 758 mmHg 75%
    21:00 +2°C° 0 mm 2 mps 759 mmHg 78%
    22:00 +2°C° 0 mm 2 mps 759 mmHg 79%
    23:00 +1°C° 0 mm 2 mps 759 mmHg 80%

    Tomorrow, 25 March, Monday

    Time Temperature Precipitation Wind Pressure Humidity
    00:00 +1°C° 0 mm 2 mps 759 mmHg 81%
    01:00 +1°C° 0 mm 2 mps 758 mmHg 82%
    02:00 -1°C° 0 mm 2 mps 758 mmHg 84%
    03:00 -1°C° 0 mm 2 mps 758 mmHg 85%
    04:00 -1°C° 0 mm 2 mps 758 mmHg 85%
    05:00 -1°C° 0 mm 2 mps 758 mmHg 85%
    06:00 -1°C° 0 mm 2 mps 758 mmHg 86%
    07:00 +1°C° 0 mm 2 mps 758 mmHg 78%
    08:00 +3°C° 0 mm 2 mps 758 mmHg 71%
    09:00 +5°C° 0 mm 2 mps 757 mmHg 63%
    10:00 +6°C° 0 mm 2 mps 757 mmHg 60%
    11:00 +8°C° 0 mm 1 mps 757 mmHg 56%
    12:00 +10°C° 0 mm 1 mps 756 mmHg 52%
    13:00 +10°C° 0 mm 1 mps 756 mmHg 51%
    14:00 +11°C° 0 mm 1 mps 755 mmHg 50%
    15:00 +12°C° 0 mm 1 mps 755 mmHg 49%
    16:00 +11°C° 0 mm 1 mps 755 mmHg 53%
    17:00 +11°C° 0 mm 1 mps 755 mmHg 58%
    18:00 +10°C° 0 mm 1 mps 755 mmHg 62%
    19:00 +9°C° 0 mm 1 mps 755 mmHg 64%
    20:00 +8°C° 0 mm 1 mps 756 mmHg 67%
    21:00 +6°C° 0 mm 2 mps 756 mmHg 69%
    22:00 +5°C° 0 mm 2 mps 756 mmHg 71%
    23:00 +5°C° 0 mm 2 mps 756 mmHg 72%

    Day after tomorrow, 26 March, Tuesday

    Time Temperature Precipitation Wind Pressure Humidity
    00:00 +4°C° 0 mm 2 mps 756 mmHg 73%
    01:00 +4°C° 0 mm 2 mps 756 mmHg 75%
    02:00 +4°C° 0 mm 2 mps 756 mmHg 76%
    03:00 +3°C° 0 mm 2 mps 756 mmHg 78%
    04:00 +3°C° 0 mm 2 mps 756 mmHg 78%
    05:00 +3°C° 0 mm 2 mps 756 mmHg 79%
    06:00 +2°C° 0 mm 2 mps 756 mmHg 80%
    07:00 +4°C° 0 mm 2 mps 756 mmHg 75%
    08:00 +6°C° 0 mm 2 mps 756 mmHg 70%
    09:00 +7°C° 0 mm 2 mps 756 mmHg 65%
    10:00 +9°C° 0 mm 2 mps 756 mmHg 60%
    11:00 +12°C° 0 mm 2 mps 755 mmHg 55%
    12:00 +13°C° 0 mm 2 mps 755 mmHg 49%
    13:00 +14°C° 0 mm 2 mps 754 mmHg 47%
    14:00 +15°C° 0 mm 1 mps 754 mmHg 44%
    15:00 +16°C° 0 mm 1 mps 754 mmHg 42%
    16:00 +15°C° 0 mm 1 mps 754 mmHg 46%
    17:00 +14°C° 0 mm 1 mps 753 mmHg 50%
    18:00 +14°C° 0 mm 1 mps 753 mmHg 54%
    19:00 +12°C° 0 mm 1 mps 754 mmHg 56%
    20:00 +11°C° 0 mm 1 mps 754 mmHg 59%
    21:00 +9°C° 0 mm 2 mps 754 mmHg 62%
    22:00 +8°C° 0 mm 2 mps 754 mmHg 64%
    23:00 +7°C° 0 mm 2 mps 754 mmHg 66%

    27 March, Wednesday

    Time Temperature Precipitation Wind Pressure Humidity
    00:00 +7°C° 0 mm 2 mps 754 mmHg 69%
    01:00 +6°C° 0 mm 2 mps 754 mmHg 71%
    02:00 +6°C° 0 mm 2 mps 754 mmHg 73%
    03:00 +6°C° 0 mm 2 mps 754 mmHg 75%
    04:00 +5°C° 0 mm 2 mps 755 mmHg 78%
    05:00 +5°C° 0 mm 2 mps 755 mmHg 80%
    06:00 +4°C° 0 mm 2 mps 755 mmHg 82%
    07:00 +6°C° 0 mm 2 mps 755 mmHg 77%
    08:00 +7°C° 0 mm 2 mps 756 mmHg 71%
    09:00 +9°C° 0 mm 3 mps 756 mmHg 66%
    10:00 +10°C° 0 mm 3 mps 756 mmHg 65%
    11:00 +11°C° 0 mm 4 mps 756 mmHg 65%
    12:00 +12°C° 0 mm 4 mps 756 mmHg 64%
    13:00 +12°C° 0 mm 5 mps 756 mmHg 62%
    14:00 +12°C° 0 mm 5 mps 757 mmHg 59%
    15:00 +11°C° 0 mm 6 mps 757 mmHg 56%
    16:00 +10°C° 0 mm 6 mps 757 mmHg 54%
    17:00 +9°C° 0 mm 5 mps 758 mmHg 51%
    18:00 +8°C° 0 mm 5 mps 758 mmHg 49%
    19:00 +6°C° 0 mm 5 mps 759 mmHg 53%
    20:00 +5°C° 0 mm 4 mps 760 mmHg 57%
    21:00 +4°C° 0 mm 3 mps 761 mmHg 61%
    22:00 +3°C° 0 mm 3 mps 761 mmHg 60%
    23:00 +3°C° 0 mm 2 mps 762 mmHg 58%

    28 March, Thursday

    Time Temperature Precipitation Wind Pressure Humidity
    00:00 +2°C° 0 mm 2 mps 762 mmHg 57%
    01:00 +2°C° 0 mm 2 mps 763 mmHg 58%
    02:00 +1°C° 0 mm 2 mps 763 mmHg 59%
    03:00 +1°C° 0 mm 2 mps 763 mmHg 60%
    04:00 +2°C° 0 mm 1 mps 763 mmHg 60%
    05:00 +1°C° 0 mm 1 mps 764 mmHg 60%
    06:00 +1°C° 0 mm 1 mps 764 mmHg 60%
    07:00 +3°C° 0 mm 1 mps 764 mmHg 53%
    08:00 +4°C° 0 mm 1 mps 764 mmHg 47%
    09:00 +6°C° 0 mm 1 mps 764 mmHg 41%
    10:00 +7°C° 0 mm 1 mps 764 mmHg 39%
    11:00 +7°C° 0 mm 2 mps 764 mmHg 37%
    12:00 +7°C° 0 mm 3 mps 764 mmHg 36%
    13:00 +8°C° 0 mm 3 mps 764 mmHg 36%
    14:00 +8°C° 0 mm 3 mps 763 mmHg 36%
    15:00 +9°C° 0 mm 3 mps 763 mmHg 36%
    16:00 +8°C° 0 mm 3 mps 763 mmHg 41%
    17:00 +7°C° 0 mm 3 mps 763 mmHg 45%
    18:00 +7°C° 0 mm 3 mps 763 mmHg 50%
    19:00 +4°C° 0 mm 3 mps 764 mmHg 52%
    20:00 +3°C° 0 mm 3 mps 764 mmHg 55%
    21:00 +2°C° 0 mm 3 mps 764 mmHg 58%
    22:00 +2°C° 0 mm 2 mps 764 mmHg 59%
    23:00 +2°C° 0 mm 2 mps 764 mmHg 60%

    29 March, Friday

    Time Temperature Precipitation Wind Pressure Humidity
    00:00 +1°C° 0 mm 2 mps 764 mmHg 61%
    01:00 +1°C° 0 mm 2 mps 764 mmHg 62%
    02:00 +1°C° 0 mm 2 mps 764 mmHg 63%
    03:00 -1°C° 0 mm 2 mps 764 mmHg 64%
    04:00 -1°C° 0 mm 2 mps 764 mmHg 65%
    05:00 +1°C° 0 mm 1 mps 764 mmHg 66%
    06:00 +1°C° 0 mm 1 mps 764 mmHg 67%
    07:00 +3°C° 0 mm 1 mps 764 mmHg 61%
    08:00 +4°C° 0 mm 1 mps 764 mmHg 55%
    09:00 +6°C° 0 mm 1 mps 764 mmHg 50%
    10:00 +6°C° 0 mm 2 mps 763 mmHg 46%
    11:00 +7°C° 0 mm 2 mps 763 mmHg 42%
    12:00 +8°C° 0 mm 2 mps 762 mmHg 38%
    13:00 +9°C° 0 mm 2 mps 762 mmHg 38%
    14:00 +10°C° 0 mm 2 mps 762 mmHg 37%
    15:00 +10°C° 0 mm 3 mps 761 mmHg 36%
    16:00 +10°C° 0 mm 2 mps 761 mmHg 41%
    17:00 +9°C° 0 mm 2 mps 761 mmHg 45%
    18:00 +8°C° 0 mm 2 mps 761 mmHg 50%
    19:00 +8°C° 0 mm 1 mps 761 mmHg 53%
    20:00 +7°C° 0 mm 1 mps 761 mmHg 55%
    21:00 +5°C° 0 mm 1 mps 762 mmHg 58%
    22:00 +5°C° 0 mm 1 mps 762 mmHg 59%
    23:00 +5°C° 0 mm 1 mps 761 mmHg 60%
    Show more